Location: Grand Rapids
(42.9630°N, 85.6680°W)
Time: 06:25:35
(UTC-04:00)

Tiros 1 - Pass Details

Date: 23 April 2025
Orbit: 620 x 652 km, 48.4° (Epoch: 13 May)

Event Time Altitude Azimuth Distance (km) Brightness Sun altitude
Exits shadow 06:05:09 10° 251° (WSW) 2,053 9.1 -8.1°
Reaches altitude 10° 06:05:10 10° 251° (WSW) 2,047 9.0 -8.1°
Maximum altitude 06:09:54 75° 337° (NNW) 676 7.3 -7.3°
Drops below altitude 10° 06:14:39 10° 63° (ENE) 2,057 11.6 -6.5°
Sets 06:17:00 0° 65° (ENE) 2,969 13.5 -6.1°
